TimeCST,TemperatureF,Dew PointF,Humidity,Sea Level PressureIn,VisibilityMPH,Wind Direction,Wind SpeedMPH,Gust SpeedMPH,PrecipitationIn,Events,Conditions,WindDirDegrees,DateUTC
12:15 AM,32.5,32.2,99,29.73,0.5,NE,6.9,-,N/A,Fog,Fog,50,2013-12-04 06:15:00
12:35 AM,32.4,32.0,99,29.74,0.5,ENE,6.9,-,N/A,Fog,Fog,70,2013-12-04 06:35:00
12:55 AM,32.4,32.0,99,29.74,0.5,ENE,6.9,-,N/A,Fog,Fog,60,2013-12-04 06:55:00
1:15 AM,32.2,32.0,99,29.74,0.8,NE,5.8,-,N/A,,Overcast,40,2013-12-04 07:15:00
1:35 AM,32.2,32.0,99,29.74,0.5,ENE,6.9,-,N/A,Fog,Fog,70,2013-12-04 07:35:00
1:55 AM,32.2,32.0,99,29.74,0.5,ENE,4.6,-,N/A,Fog,Fog,70,2013-12-04 07:55:00
2:15 AM,32.4,32.0,99,29.73,0.5,NE,8.1,-,N/A,Fog,Fog,50,2013-12-04 08:15:00
2:35 AM,32.2,32.0,99,29.73,0.5,ENE,5.8,-,N/A,Fog,Fog,70,2013-12-04 08:35:00
2:55 AM,32.2,32.0,99,29.73,0.5,NE,4.6,-,N/A,Fog,Fog,50,2013-12-04 08:55:00
3:15 AM,32.2,32.0,99,29.72,0.5,NE,5.8,-,N/A,Fog,Fog,50,2013-12-04 09:15:00
3:35 AM,32.2,32.0,99,29.72,0.2,ENE,5.8,-,N/A,Fog,Fog,60,2013-12-04 09:35:00
3:55 AM,32.2,32.0,99,29.70,0.2,ENE,8.1,-,N/A,Fog,Fog,70,2013-12-04 09:55:00
4:15 AM,32.2,32.0,99,29.68,0.2,East,9.2,-,N/A,,Overcast,80,2013-12-04 10:15:00
4:35 AM,32.4,32.0,99,29.69,0.5,ENE,8.1,-,N/A,Fog,Fog,60,2013-12-04 10:35:00
4:55 AM,32.4,32.0,99,29.69,0.5,NE,9.2,-,N/A,Fog,Fog,50,2013-12-04 10:55:00
5:15 AM,32.5,32.2,99,29.69,0.2,East,9.2,-,N/A,Fog,Fog,80,2013-12-04 11:15:00
5:35 AM,32.5,32.2,99,29.70,0.2,ENE,4.6,-,N/A,Fog,Fog,70,2013-12-04 11:35:00
5:55 AM,32.7,32.4,99,29.70,0.2,ENE,4.6,-,N/A,Fog,Fog,60,2013-12-04 11:55:00
6:15 AM,32.9,32.4,98,29.69,0.2,ENE,5.8,-,N/A,Fog,Fog,70,2013-12-04 12:15:00
6:35 AM,32.9,32.5,99,29.69,0.2,East,6.9,-,N/A,Fog,Fog,80,2013-12-04 12:35:00
6:55 AM,33.1,32.9,99,29.69,0.2,ENE,5.8,-,N/A,Fog,Fog,60,2013-12-04 12:55:00
7:15 AM,33.1,32.9,99,29.69,0.2,ENE,6.9,-,N/A,Fog,Fog,60,2013-12-04 13:15:00
7:35 AM,33.1,32.9,99,29.69,0.2,ENE,8.1,-,N/A,Fog,Fog,60,2013-12-04 13:35:00
7:55 AM,33.1,32.9,99,29.68,0.2,ENE,9.2,-,N/A,Fog,Fog,70,2013-12-04 13:55:00
8:15 AM,33.1,32.9,99,29.66,0.5,East,11.5,-,N/A,,Overcast,80,2013-12-04 14:15:00
8:35 AM,33.4,33.1,99,29.66,0.2,East,11.5,-,N/A,,Overcast,80,2013-12-04 14:35:00
8:55 AM,33.6,33.3,99,29.67,0.2,East,5.8,-,N/A,Fog,Fog,80,2013-12-04 14:55:00
9:15 AM,33.8,33.4,99,29.67,0.5,ENE,5.8,-,N/A,Fog,Fog,70,2013-12-04 15:15:00
9:35 AM,34.0,33.8,99,29.66,0.5,East,5.8,-,N/A,Fog,Fog,80,2013-12-04 15:35:00
9:55 AM,34.3,34.0,99,29.66,0.2,East,4.6,-,N/A,Fog,Fog,80,2013-12-04 15:55:00
10:15 AM,34.5,34.2,99,29.66,0.2,ENE,3.5,-,N/A,Fog,Fog,60,2013-12-04 16:15:00
10:35 AM,34.7,34.3,99,29.65,0.2,Calm,Calm,-,N/A,Fog,Fog,0,2013-12-04 16:35:00
10:55 AM,34.7,34.5,99,29.64,0.2,NE,4.6,-,N/A,Fog,Fog,50,2013-12-04 16:55:00
11:15 AM,35.1,34.7,99,29.62,0.2,ENE,4.6,-,N/A,Rain,Light Rain,60,2013-12-04 17:15:00
11:35 AM,35.1,34.7,99,29.59,0.2,ENE,5.8,-,N/A,Snow,Light Snow,60,2013-12-04 17:35:00
11:55 AM,35.1,34.7,99,29.57,0.2,ENE,6.9,-,N/A,,Overcast,60,2013-12-04 17:55:00
12:15 PM,35.6,35.1,98,29.57,0.2,East,4.6,-,N/A,,Overcast,90,2013-12-04 18:15:00
12:35 PM,35.6,35.2,99,29.54,0.2,ENE,4.6,-,N/A,,Light Drizzle,60,2013-12-04 18:35:00
12:55 PM,35.8,35.6,99,29.53,0.2,East,5.8,-,N/A,Snow,Light Snow,90,2013-12-04 18:55:00
1:15 PM,36.1,35.8,99,29.51,0.5,East,8.1,-,N/A,,Light Drizzle,90,2013-12-04 19:15:00
1:35 PM,36.5,36.1,99,29.49,0.5,East,8.1,-,N/A,,Light Drizzle,80,2013-12-04 19:35:00
1:55 PM,36.7,36.5,99,29.48,0.2,ENE,8.1,-,N/A,,Overcast,70,2013-12-04 19:55:00
2:15 PM,36.9,36.5,99,29.47,0.2,East,8.1,-,N/A,Fog,Fog,80,2013-12-04 20:15:00
2:35 PM,37.2,36.7,98,29.46,0.2,East,4.6,-,N/A,Fog,Fog,90,2013-12-04 20:35:00
2:55 PM,37.6,37.0,98,29.45,0.2,East,3.5,-,N/A,,Light Drizzle,100,2013-12-04 20:55:00
3:15 PM,37.6,37.2,99,29.45,0.2,Calm,Calm,-,N/A,Fog,Fog,0,2013-12-04 21:15:00
3:35 PM,37.8,37.4,99,29.44,0.2,Calm,Calm,-,N/A,Fog,Fog,0,2013-12-04 21:35:00
3:55 PM,37.6,37.2,99,29.45,0.2,Calm,Calm,-,N/A,Fog,Fog,0,2013-12-04 21:55:00
4:15 PM,42.3,41.7,98,29.44,0.2,South,4.6,-,N/A,Fog,Fog,170,2013-12-04 22:15:00
4:35 PM,42.4,41.7,97,29.43,0.2,SSE,6.9,-,N/A,Fog,Fog,150,2013-12-04 22:35:00
4:55 PM,43.2,42.4,97,29.43,0.2,South,9.2,-,N/A,Fog,Fog,170,2013-12-04 22:55:00
5:15 PM,43.3,42.6,97,29.43,0.2,South,11.5,-,N/A,Fog,Fog,170,2013-12-04 23:15:00
5:35 PM,43.9,43.2,97,29.42,0.2,South,9.2,-,N/A,,Light Drizzle,170,2013-12-04 23:35:00
5:55 PM,45.5,44.8,97,29.42,1.5,SSW,10.4,-,N/A,Rain,Light Rain,200,2013-12-04 23:55:00
6:15 PM,46.0,45.1,97,29.41,1.5,SSW,9.2,-,N/A,,Light Drizzle,200,2013-12-05 00:15:00
6:35 PM,46.0,45.1,97,29.41,1.5,SSW,8.1,-,N/A,,Light Drizzle,210,2013-12-05 00:35:00
6:55 PM,46.2,45.3,97,29.42,1.5,SW,9.2,-,N/A,,Light Drizzle,230,2013-12-05 00:55:00
7:15 PM,45.7,44.8,97,29.42,1.5,WSW,16.1,21.9,N/A,Rain,Light Rain,250,2013-12-05 01:15:00
7:35 PM,42.1,41.4,97,29.43,4.0,WSW,15.0,-,N/A,,Light Drizzle,250,2013-12-05 01:35:00
7:55 PM,41.2,40.5,97,29.44,10.0,WSW,12.7,19.6,N/A,,Overcast,250,2013-12-05 01:55:00
8:15 PM,40.3,39.9,99,29.45,10.0,WSW,17.3,25.3,N/A,,Overcast,250,2013-12-05 02:15:00
8:35 PM,39.0,38.3,97,29.46,10.0,WSW,16.1,-,N/A,,Overcast,250,2013-12-05 02:35:00
8:55 PM,37.9,37.4,98,29.49,10.0,WSW,19.6,25.3,N/A,,Overcast,250,2013-12-05 02:55:00
9:15 PM,36.9,35.4,95,29.51,10.0,WSW,18.4,25.3,N/A,,Overcast,250,2013-12-05 03:15:00
9:35 PM,36.1,33.6,91,29.52,10.0,WSW,18.4,28.8,N/A,,Overcast,250,2013-12-05 03:35:00
9:55 PM,35.1,32.0,89,29.53,10.0,West,21.9,29.9,N/A,,Overcast,260,2013-12-05 03:55:00
10:15 PM,34.2,30.6,87,29.55,10.0,WSW,21.9,27.6,N/A,,Overcast,250,2013-12-05 04:15:00
10:35 PM,33.4,30.0,87,29.57,10.0,West,18.4,21.9,N/A,,Overcast,260,2013-12-05 04:35:00
10:55 PM,32.9,29.1,86,29.58,10.0,WSW,20.7,28.8,N/A,,Overcast,250,2013-12-05 04:55:00
11:15 PM,32.2,28.0,85,29.59,10.0,West,18.4,25.3,N/A,,Overcast,260,2013-12-05 05:15:00
11:35 PM,32.0,27.5,83,29.60,10.0,WSW,15.0,23.0,N/A,,Overcast,250,2013-12-05 05:35:00
11:55 PM,32.0,26.8,81,29.62,10.0,West,13.8,24.2,N/A,,Overcast,260,2013-12-05 05:55:00